Weather History for Bogalusa, LA

Change the Weather History Date:

Wednesday, April 3, 2013

  Actual Average Record
Temperature  
Mean Temperature 57 °F -  
Max Temperature 64 °F 75 °F 83 °F (2014)
Min Temperature 50 °F 50 °F 50 °F (2013)
Degree Days  
Heating Degree Days 8    
Growing Degree Days 7 (Base 50)    
Moisture  
Dew Point 53 °F    
Average Humidity 89    
Maximum Humidity 97    
Minimum Humidity 46    
Precipitation  
Precipitation 1.40 in - - ()
Sea Level Pressure  
Sea Level Pressure 29.97 in    
Wind  
Wind Speed 7 mph (NE)    
Max Wind Speed 18 mph    
Max Gust Speed 29 mph    
Visibility 8 miles    
Events Rain , Thunderstorm    
Averages and records for this station are not official NWS values.
T = Trace of Precipitation, MM = Missing Value Source: NWS Daily Summary

Daily Weather History Graph

Daily Weather History Graph

Search for Another Location

Airport:

Trip Planner

Search our weather history database for the weather conditions in past years. The results will help you decide how hot, cold, wet, or windy it might be!

Date:

Astronomy

Apr. 03, 2013 Rise Set
Actual Time 6:45 AM CDT 7:20 PM CDT
Civil Twilight 6:21 AM CDT 7:44 PM CDT
Nautical Twilight 5:52 AM CDT 8:12 PM CDT
Astronomical Twilight 5:23 AM CDT 8:42 PM CDT
Moon 2:01 AM CDT (4/3) 12:56 PM CDT (4/3)
Length of Visible Light 13h 23m
Length of Day
12h 34m
Last Quarter, 44% of the Moon is Illuminated
Apr 3
Last Quarter
Apr 10
New
Apr 18
First Quarter
Apr 25
Full
May 2
Last Quarter

Hourly Weather History & Observations

Time (CDT) Temp. Dew Point Humidity Pressure Visibility Wind Dir Wind Speed Gust Speed Precip Events Conditions
12:15 AM 64.0 °F 43.3 °F 47% 29.99 in 10.0 mi North - - N/A   Overcast
12:55 AM 64.4 °F 43.2 °F 46% 29.98 in 10.0 mi East 3.5 mph - N/A   Scattered Clouds
1:15 AM 64.6 °F 43.7 °F 47% 29.98 in 10.0 mi Calm Calm - N/A   Unknown
1:35 AM 64.6 °F 43.9 °F 47% 29.97 in 10.0 mi East 3.5 mph - N/A   Unknown
1:55 AM 63.3 °F 46.4 °F 54% 29.97 in 10.0 mi East 3.5 mph - N/A Rain Light Rain
2:15 AM 62.8 °F 52.7 °F 70% 29.97 in 10.0 mi ENE 3.5 mph - N/A Rain Rain
2:35 AM 62.4 °F 59.2 °F 89% 29.98 in 10.0 mi North 5.8 mph - 0.02 in Rain , Thunderstorm Light Thunderstorms and Rain
2:55 AM 61.7 °F 59.4 °F 92% 29.98 in 10.0 mi ENE 4.6 mph - 0.04 in Rain , Thunderstorm Rain
3:15 AM 61.2 °F 59.4 °F 94% 29.98 in 7.0 mi East 8.1 mph - 0.04 in Rain , Thunderstorm Light Thunderstorms and Rain
3:35 AM 61.0 °F 59.9 °F 96% 29.97 in 5.0 mi East 10.4 mph - 0.12 in Rain Rain
3:55 AM 60.8 °F 59.9 °F 97% 29.96 in 5.0 mi East 5.8 mph - 0.21 in Rain Rain
4:15 AM 60.3 °F 59.2 °F 96% 29.96 in 7.0 mi East 6.9 mph - 0.03 in Rain Light Rain
4:35 AM 60.4 °F 59.2 °F 96% 29.97 in 7.0 mi ENE 5.8 mph - 0.06 in Rain Rain
4:55 AM 59.9 °F 58.6 °F 96% 29.98 in 7.0 mi ENE 3.5 mph - 0.10 in Rain Rain
5:15 AM 59.2 °F 58.3 °F 97% 29.99 in 5.0 mi NE 4.6 mph - 0.05 in Rain Rain
5:35 AM 59.0 °F 58.1 °F 97% 29.99 in 5.0 mi NE 5.8 mph - 0.10 in Rain , Thunderstorm Rain
5:55 AM 58.8 °F 57.9 °F 97% 29.99 in 7.0 mi ENE 6.9 mph - 0.16 in Rain , Thunderstorm Rain
6:15 AM 58.3 °F 57.4 °F 97% 29.99 in 4.0 mi ENE 6.9 mph - 0.09 in Rain Rain
6:35 AM 57.7 °F 56.8 °F 97% 30.00 in 5.0 mi ENE 5.8 mph - 0.20 in Rain , Thunderstorm Rain
6:55 AM 57.6 °F 56.7 °F 97% 30.00 in 5.0 mi NE 8.1 mph - 0.28 in Rain Rain
7:15 AM 57.2 °F 56.3 °F 97% 30.00 in 5.0 mi NE 8.1 mph - 0.04 in Rain Rain
7:35 AM 56.5 °F 55.6 °F 97% 30.00 in 5.0 mi NNE 9.2 mph - 0.11 in Rain , Thunderstorm Heavy Thunderstorms and Rain
7:55 AM 55.9 °F 54.9 °F 96% 29.99 in 7.0 mi NE 6.9 mph 19.6 mph 0.15 in Rain , Thunderstorm Light Thunderstorms and Rain
8:15 AM 55.2 °F 54.3 °F 97% 29.99 in 5.0 mi NE 9.2 mph - 0.02 in Rain Light Rain
8:35 AM 54.9 °F 53.8 °F 96% 30.01 in 5.0 mi NE 6.9 mph - 0.07 in Rain Rain
8:55 AM 54.7 °F 53.6 °F 96% 30.03 in 3.0 mi NNE 8.1 mph - 0.15 in Rain , Thunderstorm Heavy Thunderstorms and Rain
9:15 AM 54.9 °F 53.8 °F 96% 30.05 in 2.0 mi East 11.5 mph - 0.12 in Rain Heavy Rain
9:35 AM 54.7 °F 53.8 °F 97% 30.02 in 2.5 mi East 18.4 mph 24.2 mph 0.30 in Rain Rain
10:15 AM 55.0 °F 53.6 °F 95% 29.95 in 10.0 mi East 11.5 mph 20.7 mph N/A   Overcast
10:35 AM 55.0 °F 53.6 °F 95% 29.90 in 10.0 mi East 15.0 mph 26.5 mph N/A   Overcast
10:55 AM 55.4 °F 53.2 °F 92% 29.92 in 10.0 mi East 15.0 mph 28.8 mph N/A   Overcast
11:15 AM 55.8 °F 53.4 °F 92% 29.96 in 10.0 mi ENE 13.8 mph - N/A   Overcast
11:35 AM 56.3 °F 53.4 °F 90% 29.95 in 10.0 mi NE 12.7 mph 23.0 mph N/A   Overcast
11:55 AM 56.5 °F 53.8 °F 91% 29.95 in 10.0 mi NE 10.4 mph 17.3 mph N/A   Overcast
12:15 PM 56.5 °F 53.8 °F 91% 29.93 in 10.0 mi NE 12.7 mph 20.7 mph N/A   Overcast
12:35 PM 56.7 °F 53.8 °F 90% 29.93 in 10.0 mi NE 10.4 mph 17.3 mph N/A   Overcast
12:55 PM 57.2 °F 53.4 °F 87% 29.94 in 10.0 mi NE 10.4 mph 16.1 mph N/A   Overcast
1:15 PM 57.6 °F 53.6 °F 87% 29.93 in 10.0 mi ENE 10.4 mph 17.3 mph N/A   Overcast
1:35 PM 57.6 °F 52.9 °F 84% 29.93 in 10.0 mi NE 8.1 mph - N/A   Overcast
1:55 PM 57.7 °F 54.0 °F 87% 29.93 in 10.0 mi NE 8.1 mph - N/A   Overcast
2:15 PM 57.7 °F 53.8 °F 87% 29.94 in 10.0 mi NE 8.1 mph - N/A   Overcast
2:55 PM 57.7 °F 53.2 °F 85% 29.91 in 10.0 mi NE 13.8 mph 18.4 mph N/A   Overcast
3:15 PM 57.6 °F 53.1 °F 85% 29.91 in 10.0 mi NE 12.7 mph 16.1 mph N/A   Overcast
3:35 PM 57.7 °F 53.4 °F 85% 29.91 in 10.0 mi NE 6.9 mph - N/A   Overcast
3:55 PM 57.6 °F 53.2 °F 85% 29.91 in 10.0 mi NE 9.2 mph 16.1 mph N/A   Overcast
4:15 PM 57.4 °F 52.7 °F 84% 29.92 in 10.0 mi NE 9.2 mph - N/A   Overcast
4:35 PM 57.0 °F 53.2 °F 87% 29.93 in 7.0 mi NE 9.2 mph - N/A   Overcast
4:55 PM 56.1 °F 53.6 °F 91% 29.92 in 7.0 mi NNE 9.2 mph - N/A   Drizzle
5:15 PM 55.6 °F 53.6 °F 93% 29.92 in 5.0 mi NE 8.1 mph - N/A   Light Drizzle
5:35 PM 55.4 °F 53.6 °F 94% 29.92 in 5.0 mi NNE 9.2 mph - N/A   Light Drizzle
5:55 PM 55.0 °F 53.2 °F 94% 29.92 in 7.0 mi NE 10.4 mph 18.4 mph N/A   Light Drizzle
6:15 PM 54.9 °F 53.1 °F 94% 29.94 in 7.0 mi NE 8.1 mph - N/A   Light Drizzle
6:35 PM 54.5 °F 52.7 °F 94% 29.94 in 7.0 mi NE 10.4 mph 18.4 mph N/A   Light Drizzle
6:55 PM 54.0 °F 52.2 °F 94% 29.94 in 7.0 mi NNE 13.8 mph 18.4 mph N/A   Light Drizzle
7:15 PM 53.2 °F 51.8 °F 95% 29.96 in 7.0 mi NE 6.9 mph - N/A   Overcast
7:35 PM 52.9 °F 51.4 °F 95% 29.97 in 10.0 mi NNE 5.8 mph - N/A   Overcast
7:55 PM 52.7 °F 51.3 °F 95% 29.98 in 7.0 mi NNE 6.9 mph - N/A   Overcast
8:15 PM 52.7 °F 51.1 °F 94% 29.98 in 10.0 mi NE 6.9 mph - N/A   Overcast
8:35 PM 52.7 °F 51.1 °F 94% 29.98 in 10.0 mi NE 5.8 mph - 0.01 in   Overcast
8:55 PM 52.5 °F 50.9 °F 94% 29.99 in 10.0 mi NE 5.8 mph - 0.01 in   Overcast
9:15 PM 52.2 °F 50.4 °F 94% 29.99 in 10.0 mi NE 6.9 mph - N/A   Overcast
9:35 PM 52.2 °F 50.4 °F 94% 30.00 in 10.0 mi NE 5.8 mph - N/A   Overcast
10:15 PM 51.8 °F 50.0 °F 94% 30.03 in 10.0 mi NNE 5.8 mph - N/A   Overcast
10:35 PM 51.4 °F 49.8 °F 94% 30.04 in 7.0 mi North 5.8 mph - N/A   Drizzle
10:55 PM 51.1 °F 49.3 °F 94% 30.03 in 10.0 mi NNE 4.6 mph - N/A   Light Drizzle
11:15 PM 50.9 °F 49.3 °F 94% 30.03 in 10.0 mi NNE 4.6 mph - N/A   Light Drizzle
11:55 PM 50.9 °F 49.1 °F 94% 30.01 in 10.0 mi NE 4.6 mph - N/A   Overcast